Home   Weather   Xiamen   Past weeks

Flag for China Past Weather in Xiamen, Fujian, China — Yesterday and Last 2 Weeks

Now
63 °F

Clear.


Feels Like: 63 °F
Forecast: 52 / 74 °F
Wind: 3 mph from Northeast

Location: Xiamen Airport

Current Time: Dec 8, 2016 at 10:39:16 pm

Latest Report: Dec 8, 2016 at 10:00 pm


Visibility: 4 mi

Pressure: 30.04 "Hg

Humidity: 73%

Dew Point: 54 °F

Location of XiamenLocation

Past Weather in Xiamen — Graph

°F

Xiamen Temperature Yesterday

Maximum temperature yesterday: 72 °F (at 1:00 pm)
Minimum temperature yesterday: 57 °F (at 5:00 am)
Average temperature yesterday: 64 °F

High & Low Weather Summary for the Past Weeks

 TemperatureHumidityPressure
High77 °F (Dec 4, 1:00 pm)94% (Nov 26, 2:00 pm)30.30 "Hg (Nov 26, 2:00 pm)
Low52 °F (Nov 28, 5:00 am)35% (Nov 28, 11:00 am)29.95 "Hg (Nov 26, 2:00 pm)
Average66 °F70%30.14 "Hg
* Reported Nov 23 9:00 pm — Dec 8 9:00 pm, Xiamen, Weather by CustomWeather, © 2016

Note: Actual official high and low records may vary slightly from our data, if they occured in-between our weather recording intervals... More about our weather records

Advertising

Xiamen Weather History for the Previous 24 Hours

Scroll right to see more
 ConditionsComfort  
Time TempWeatherWind HumidityBarometerVisibility
9:00 pm
Thu, Dec 8
64 °FClear.3 mph68%30.04 "Hg5 mi
8:00 pm66 °FClear.8 mph64%30.04 "Hg5 mi
7:00 pm66 °FPassing clouds.6 mph68%30.01 "HgN/A
6:00 pm68 °FPassing clouds.6 mph64%29.98 "HgN/A
5:00 pm68 °FSunny.8 mph53%29.98 "Hg10 mi
4:00 pm72 °FSunny.8 mph44%29.95 "Hg10 mi
3:00 pm72 °FSunny.10 mph47%29.95 "Hg10 mi
2:00 pm73 °FPassing clouds.8 mph44%29.95 "HgN/A
1:00 pm70 °FPassing clouds.8 mph50%29.98 "HgN/A
12:00 pm70 °FPassing clouds.8 mph50%30.04 "HgN/A
11:00 am68 °FSunny.8 mph49%30.07 "Hg10 mi
10:00 am66 °FPassing clouds.8 mph49%30.09 "HgN/A
9:00 am64 °FSunny.6 mph49%30.09 "Hg10 mi
8:00 am63 °FSunny.1 mph56%30.09 "Hg10 mi
7:00 am59 °FScattered clouds.3 mph63%30.09 "HgN/A
6:00 am57 °FPassing clouds.1 mph77%30.07 "Hg4 mi
5:00 am57 °FPassing clouds.3 mph77%30.07 "Hg5 mi
4:00 am61 °FOvercast.1 mph68%30.07 "Hg5 mi
3:00 am61 °FOvercast.1 mph68%30.07 "Hg5 mi
2:00 am61 °FPassing clouds.3 mph72%30.09 "Hg6 mi
1:00 am61 °FPassing clouds.3 mph72%30.09 "Hg6 mi
12:00 am61 °FPassing clouds.3 mph72%30.12 "Hg6 mi
11:00 pm
Wed, Dec 7
59 °FClear.8 mph72%30.12 "Hg10 mi
10:00 pm61 °FClear.10 mph68%30.12 "Hg10 mi
Weather by CustomWeather, © 2016

See weather overviewHow to use our weather pages